Location: Sternwarte_Laufen
(47.9344°N, 12.9346°E)
Time: 16:38:39
(UTC+02:00)

ISS - Pass Details

Date: 10 May 2026
Orbit: 414 x 424 km, 51.6° (Epoch: 21 May)

Event Time Altitude Azimuth Distance (km) Brightness Sun altitude
Rises 22:29:10 0° 252° (WSW) 2,345 0.3 -15.6°
Reaches altitude 10° 22:31:16 10° 254° (WSW) 1,485 -0.7 -15.9°
Maximum altitude 22:34:35 73° 340° (NNW) 438 -3.6 -16.2°
Drops below altitude 10° 22:37:56 10° 66° (ENE) 1,493 -1.1 -16.5°
Enters shadow 22:39:08 - 67° (ENE) 1,982 -0.5 -16.7°
